FW2972 Weather Reports


Display with metric or nautical units.
time (UTC)temp
F
wind
direction
speed
MPH
gust
MPH
rain 1hr
in
rain 24hr
in
rain mn
in
humidity
%
barometer
mb
20260901201105 84 266 1.0 3.0 0.00 0.03 0.03 88 1014.2
20260901200604 83 246 0.0 2.0 0.00 0.03 0.03 88 1014.4
20260901200059 83 273 2.0 5.0 0.00 0.03 0.03 88 1014.7
20260901195557 83 254 1.0 3.0 0.00 0.03 0.03 90 1014.5
20260901195057 82 302 1.0 3.0 0.00 0.03 0.03 90 1015.0
20260901194552 82 252 1.0 3.0 0.00 0.03 0.03 90 1014.9
20260901194048 82 235 0.0 1.0 0.00 0.03 0.03 91 1015.3
20260901193542 82 269 0.0 4.0 0.02 0.03 0.03 91 1015.1
20260901193037 82 275 3.0 5.0 0.02 0.03 0.03 90 1015.2
20260901192532 82 15 0.0 3.0 0.00 0.02 0.02 92 1015.1
20260901192028 83 345 1.0 2.0 0.02 0.02 0.02 91 1015.2
20260901191524 83 6 0.0 2.0 0.02 0.02 0.02 93 1015.4
20260901191020 82 269 0.0 3.0 0.00 0.02 0.02 93 1015.3
20260901190515 82 300 2.0 2.0 0.00 0.02 0.02 93 1015.5
20260901190014 83 253 1.0 2.0 0.00 0.02 0.02 92 1015.5
20260901185513 83 264 0.0 1.0 0.00 0.02 0.02 92 1015.7
20260901185012 82 310 0.0 0.0 0.02 0.02 0.02 92 1015.5
20260901184508 82 329 0.0 2.0 0.02 0.02 0.02 90 1015.6
20260901184003 83 326 0.0 2.0 0.02 0.02 0.02 91 1015.8
20260901183457 83 267 0.0 2.0 0.02 0.02 0.02 89 1015.6
20260901182953 83 269 0.0 3.0 0.00 0.01 0.01 90 1015.9
20260901182449 83 305 0.0 2.0 0.00 0.01 0.01 89 1015.7
20260901181948 84 255 0.0 4.0 0.00 0.01 0.01 89 1015.7
20260901181443 83 349 0.0 3.0 0.00 0.01 0.01 89 1015.7
20260901180942 83 324 0.0 3.0 0.00 0.01 0.01 89 1015.7
20260901180442 84 311 0.0 1.0 0.00 0.01 0.01 90 1015.8
20260901175940 83 17 0.0 4.0 0.00 0.01 0.01 89 1015.5
20260901175436 84 141 0.0 1.0 0.00 0.01 0.01 90 1015.9
20260901174930 83 273 0.0 3.0 0.02 0.01 0.01 89 1015.8
20260901174426 83 252 3.0 5.0 0.02 0.01 0.01 89 1016.0
20260901173921 83 284 1.0 4.0 0.00 0.01 0.01 89 1016.0
20260901173422 83 249 0.0 3.0 0.00 0.01 0.01 89 1016.3
20260901172918 84 299 0.0 3.0 0.00 0.01 0.01 88 1016.5
20260901172413 84 348 0.0 2.0 0.02 0.01 0.01 88 1016.4
20260901171911 84 205 0.0 1.0 0.00 0.00 0.00 88 1016.8
20260901171409 84 212 0.0 2.0 0.02 0.00 0.00 87 1016.9
20260901170908 84 216 2.0 2.0 0.02 0.00 0.00 88 1016.8
20260901170403 84 135 0.0 2.0 0.00 0.00 0.00 88 1016.9
20260901165857 84 338 0.0 2.0 0.00 0.00 0.00 86 1016.8
20260901165352 84 224 0.0 2.0 0.00 0.00 0.00 85 1017.0
20260901164849 85 0 0.0 4.0 0.00 0.00 0.00 84 1017.1
20260901164344 85 230 0.0 3.0 0.00 0.00 0.00 82 1017.2
20260901163843 85 259 1.0 3.0 0.00 0.00 0.00 79 1017.1
20260901163338 86 258 0.0 3.0 0.00 0.00 0.00 81 1017.1
20260901162833 86 15 0.0 4.0 0.00 0.00 0.00 81 1017.2
20260901162332 86 312 0.0 3.0 0.00 0.00 0.00 80 1017.1
20260901161832 86 310 0.0 4.0 0.00 0.00 0.00 81 1017.3
20260901161326 86 239 1.0 5.0 0.00 0.00 0.00 81 1017.0
20260901160821 86 335 0.0 4.0 0.00 0.00 0.00 81 1016.9
20260901160318 87 340 2.0 5.0 0.00 0.00 0.00 80 1017.1
20260901155817 86 256 0.0 3.0 0.00 0.00 0.00 81 1017.1
20260901155312 86 218 2.0 6.0 0.00 0.00 0.00 81 1016.9
20260901154808 87 89 0.0 3.0 0.00 0.00 0.00 82 1016.9
20260901154302 87 295 2.0 3.0 0.00 0.00 0.00 80 1016.8
20260901153756 87 321 2.0 3.0 0.00 0.00 0.00 81 1016.7
20260901153251 87 8 0.0 4.0 0.00 0.00 0.00 81 1016.5
20260901152750 87 170 0.0 2.0 0.00 0.00 0.00 81 1016.5
20260901152249 86 317 0.0 2.0 0.00 0.00 0.00 82 1016.6
20260901151744 87 337 0.0 2.0 0.00 0.00 0.00 82 1016.6
20260901151244 86 209 0.0 2.0 0.00 0.00 0.00 83 1016.6
20260901150744 86 345 0.0 4.0 0.00 0.00 0.00 84 1016.5
20260901150242 86 27 1.0 2.0 0.00 0.00 0.00 85 1016.5
20260901145740 85 343 1.0 2.0 0.00 0.00 0.00 84 1016.6
20260901145240 85 218 2.0 3.0 0.00 0.00 0.00 85 1016.5
20260901144735 84 310 0.0 4.0 0.00 0.00 0.00 86 1016.6
20260901144231 84 19 0.0 2.0 0.00 0.00 0.00 86 1016.6
20260901143726 84 212 0.0 0.0 0.00 0.00 0.00 87 1016.6
20260901143222 84 7 0.0 3.0 0.00 0.00 0.00 87 1016.5
20260901142718 84 314 0.0 4.0 0.00 0.00 0.00 87 1016.7
20260901142217 83 116 0.0 3.0 0.00 0.00 0.00 87 1016.7
20260901141713 83 295 0.0 4.0 0.00 0.00 0.00 88 1016.6
20260901141207 83 232 0.0 2.0 0.00 0.00 0.00 89 1016.8
20260901140706 83 255 0.0 1.0 0.00 0.00 0.00 90 1016.5
20260901140204 82 284 0.0 0.0 0.00 0.00 0.00 91 1016.5
20260901135700 82 309 0.0 1.0 0.00 0.00 0.00 92 1016.3
20260901135154 81 326 0.0 3.0 0.00 0.00 0.00 92 1016.4
20260901134650 81 264 3.0 4.0 0.00 0.00 0.00 91 1016.3
20260901134145 81 0 0.0 2.0 0.00 0.00 0.00 91 1016.3
20260901133644 81 2 0.0 4.0 0.00 0.00 0.00 91 1016.6
20260901133143 81 210 0.0 4.0 0.00 0.00 0.00 92 1016.4
20260901132638 81 189 0.0 3.0 0.00 0.00 0.00 92 1016.6
20260901132137 81 55 0.0 2.0 0.00 0.00 0.00 92 1016.5
20260901131632 81 6 0.0 3.0 0.00 0.00 0.00 93 1016.4
20260901131126 81 236 0.0 4.0 0.00 0.00 0.00 94 1016.2
20260901130621 80 327 1.0 3.0 0.00 0.00 0.00 94 1016.4
20260901130120 80 37 0.0 2.0 0.00 0.00 0.00 95 1016.4
20260901125618 80 304 0.0 2.0 0.00 0.00 0.00 95 1016.2
20260901125113 80 322 0.0 1.0 0.00 0.00 0.00 95 1016.2
20260901124608 80 135 0.0 2.0 0.00 0.00 0.00 96 1016.1
20260901124103 80 3 0.0 2.0 0.00 0.00 0.00 95 1016.2
20260901123602 80 224 0.0 2.0 0.00 0.00 0.00 96 1016.3
20260901123057 80 180 0.0 0.0 0.00 0.00 0.00 96 1016.0
20260901122555 79 6 0.0 0.0 0.00 0.00 0.00 96 1015.9
20260901122049 79 330 0.0 2.0 0.00 0.00 0.00 96 1015.7
20260901121550 79 264 0.0 2.0 0.00 0.00 0.00 97 1015.8
20260901121045 79 173 0.0 1.0 0.00 0.00 0.00 97 1015.5
20260901120544 79 315 0.0 2.0 0.00 0.00 0.00 98 1015.6
20260901120040 79 50 0.0 2.0 0.00 0.00 0.00 98 1015.6
20260901115535 79 345 1.0 2.0 0.00 0.00 0.00 98 1015.4
20260901115033 79 129 0.0 0.0 0.00 0.00 0.00 98 1015.5
20260901114528 79 256 0.0 0.0 0.00 0.00 0.00 98 1015.6
20260901114026 79 205 0.0 1.0 0.00 0.00 0.00 99 1015.2
20260901113526 79 205 0.0 1.0 0.00 0.00 0.00 99 1015.6
20260901113022 79 25 0.0 0.0 0.00 0.00 0.00 99 1015.7
20260901112516 79 22 0.0 0.0 0.00 0.00 0.00 99 1015.6
20260901112011 79 22 0.0 0.0 0.00 0.00 0.00 99 1015.5
20260901111509 79 22 0.0 0.0 0.00 0.00 0.00 99 1015.5
20260901111008 79 22 0.0 0.0 0.00 0.00 0.00 99 1015.6
20260901110504 79 22 0.0 0.0 0.00 0.00 0.00 99 1015.6
20260901105959 79 22 0.0 0.0 0.00 0.00 0.00 99 1015.6
20260901105456 79 22 0.0 0.0 0.00 0.00 0.00 99 1015.4
20260901104955 79 22 0.0 0.0 0.00 0.00 0.00 99 1015.4
20260901104451 79 22 0.0 0.0 0.00 0.00 0.00 99 1015.3
20260901103952 79 336 0.0 0.0 0.00 0.00 0.00 99 1015.4
20260901103446 79 336 0.0 0.0 0.00 0.00 0.00 99 1015.2
20260901102942 79 336 0.0 0.0 0.00 0.00 0.00 99 1015.3
20260901102436 79 315 0.0 0.0 0.00 0.00 0.00 99 1015.4
20260901101931 79 315 0.0 0.0 0.00 0.00 0.00 99 1015.6
20260901101426 79 315 0.0 0.0 0.00 0.00 0.00 99 1015.3
20260901100926 79 315 0.0 0.0 0.00 0.00 0.00 99 1015.4
20260901100420 79 315 0.0 0.0 0.00 0.00 0.00 99 1015.3
20260901095914 79 315 0.0 0.0 0.00 0.00 0.00 99 1015.5
20260901095413 79 315 0.0 0.0 0.00 0.00 0.00 99 1015.4
20260901094912 79 315 0.0 0.0 0.00 0.00 0.00 99 1015.5
20260901094406 79 315 0.0 0.0 0.00 0.00 0.00 99 1015.7
20260901093901 79 315 0.0 0.0 0.00 0.00 0.00 99 1015.5
20260901093401 79 315 0.0 0.0 0.00 0.00 0.00 99 1015.6
20260901092856 79 315 0.0 0.0 0.00 0.00 0.00 99 1015.5
20260901092357 79 315 0.0 0.0 0.00 0.00 0.00 99 1015.7
20260901091853 79 333 0.0 1.0 0.00 0.00 0.00 99 1015.7
20260901091353 79 333 0.0 1.0 0.00 0.00 0.00 99 1015.7
20260901090848 79 297 0.0 2.0 0.00 0.00 0.00 99 1015.7
20260901090342 79 311 1.0 2.0 0.00 0.00 0.00 99 1016.0
20260901085838 79 333 0.0 1.0 0.00 0.00 0.00 99 1015.8
20260901085333 79 300 0.0 1.0 0.00 0.00 0.00 99 1015.7
20260901084830 79 322 0.0 1.0 0.00 0.00 0.00 99 1015.8
20260901084326 0 0.0 0.0 0.00 0.00 0.00 1015.7
20260901083821 0 0.0 0.0 0.00 0.00 0.00 1015.6
20260901083321 0 0.0 0.0 0.00 0.00 0.00 1015.7
20260901082819 0 0.0 0.0 0.00 0.00 0.00 1015.5
20260901082315 0 0.0 0.0 0.00 0.00 0.00 1015.7
20260901081810 0 0.0 0.0 0.00 0.00 0.00 1015.4
20260901081309 0 0.0 0.0 0.00 0.00 0.00 1015.5
20260901080805 0 0.0 0.0 0.00 0.00 0.00 1015.7
20260901080305 0 0.0 0.0 0.00 0.00 0.00 1015.8
20260901075758 0 0.0 0.0 0.00 0.00 0.00 1015.6
20260901075254 0 0.0 0.0 0.00 0.00 0.00 1015.7
20260901074748 0 0.0 0.0 0.00 0.00 0.00 1015.6
20260901074243 0 0.0 0.0 0.00 0.00 0.00 1015.7
20260901073739 0 0.0 0.0 0.00 0.00 0.00 1015.6
20260901073235 0 0.0 0.0 0.00 0.00 0.00 1015.8
20260901072730 0 0.0 0.0 0.00 0.00 0.00 1015.6
20260901072225 0 0.0 0.0 0.00 0.00 0.00 1015.5
20260901071725 0 0.0 0.0 0.00 0.00 0.00 1015.8
20260901071225 0 0.0 0.0 0.00 0.00 0.00 1015.9
20260901070718 0 0.0 0.0 0.00 0.00 0.00 1016.0
20260901070214 0 0.0 0.0 0.00 0.00 0.00 1016.1
20260901065713 0 0.0 0.0 0.00 0.00 0.00 1016.0
20260901065208 0 0.0 0.0 0.00 0.00 0.00 1016.0
20260901064705 0 0.0 0.0 0.00 0.00 0.00 1015.9
20260901064201 0 0.0 0.0 0.00 0.00 0.00 1016.0
20260901063658 0 0.0 0.0 0.00 0.00 0.00 1015.9
20260901063153 0 0.0 0.0 0.00 0.00 0.00 1015.8
20260901062649 0 0.0 0.0 0.00 0.00 0.00 1015.8
20260901062145 0 0.0 0.0 0.00 0.00 0.00 1015.8
20260901061641 0 0.0 0.0 0.00 0.00 0.00 1015.9
20260901061140 0 0.0 0.0 0.00 0.00 0.00 1016.1
20260901060635 0 0.0 0.0 0.00 0.00 0.00 1016.2
20260901060130 0 0.0 0.0 0.00 0.00 0.00 1015.9
20260901055626 0 0.0 0.0 0.00 0.00 0.00 1016.1
20260901055122 0 0.0 0.0 0.00 0.00 0.00 1016.2
20260901054619 0 0.0 0.0 0.00 0.00 0.00 1016.1
20260901054115 0 0.0 0.0 0.00 0.00 0.00 1016.1
20260901053611 0 0.0 0.0 0.00 0.00 0.00 1016.0
20260901053106 0 0.0 0.0 0.00 0.00 0.00 1016.0
20260901052606 0 0.0 0.0 0.00 0.00 0.00 1016.2
20260901052102 0 0.0 0.0 0.00 0.00 0.00 1016.0
20260901051556 0 0.0 0.0 0.00 0.00 0.00 1015.9
20260901051055 0 0.0 0.0 0.00 0.00 0.00 1015.8
20260901050550 0 0.0 0.0 0.00 0.00 0.00 1016.0
20260901050045 0 0.0 0.0 0.00 0.07 0.07 1015.9
20260901045540 0 0.0 0.0 0.00 0.07 0.07 1016.0
20260901045040 0 0.0 0.0 0.00 0.07 0.07 1015.9
20260901044536 0 0.0 0.0 0.00 0.07 0.07 1015.8
20260901044032 0 0.0 0.0 0.00 0.07 0.07 1016.0
20260901043527 0 0.0 0.0 0.00 0.07 0.07 1015.9
20260901043023 0 0.0 0.0 0.00 0.07 0.07 1015.8
20260901042522 83 195 0.0 1.0 0.00 0.07 0.07 93 1015.9
20260901042018 83 195 0.0 1.0 0.00 0.07 0.07 93 1015.9
20260901041513 83 195 0.0 1.0 0.00 0.07 0.07 93 1016.0
20260901041007 83 195 0.0 1.0 0.00 0.07 0.07 93 1016.1
20260901040502 83 195 0.0 1.0 0.00 0.07 0.07 93 1016.1
20260901040001 83 195 0.0 1.0 0.00 0.07 0.07 93 1016.0
20260901035500 83 195 0.0 1.0 0.00 0.07 0.07 93 1015.8
20260901034958 83 195 0.0 1.0 0.00 0.07 0.07 93 1015.9
20260901034458 83 195 0.0 1.0 0.00 0.07 0.07 93 1016.0
20260901033953 83 195 0.0 1.0 0.00 0.07 0.07 93 1016.0
20260901033452 83 195 0.0 1.0 0.00 0.07 0.07 93 1015.9
20260901032951 83 195 0.0 1.0 0.00 0.07 0.07 93 1016.0
20260901032445 83 216 0.0 1.0 0.00 0.07 0.07 92 1015.8
20260901031941 83 220 0.0 1.0 0.00 0.07 0.07 92 1016.0
20260901031436 83 197 1.0 1.0 0.00 0.07 0.07 91 1015.8
20260901030936 83 229 0.0 1.0 0.00 0.07 0.07 90 1015.8
20260901030432 84 225 0.0 1.0 0.00 0.07 0.07 89 1015.9
20260901025930 84 225 0.0 1.0 0.00 0.07 0.07 89 1015.7
20260901025426 84 212 0.0 1.0 0.00 0.07 0.07 89 1015.5
20260901024925 84 178 0.0 2.0 0.00 0.07 0.07 89 1015.4
20260901024420 84 202 0.0 2.0 0.00 0.07 0.07 88 1015.4
20260901023918 84 142 0.0 1.0 0.00 0.07 0.07 88 1015.4
20260901023413 84 104 0.0 0.0 0.00 0.07 0.07 88 1015.2
20260901022908 84 166 0.0 2.0 0.00 0.07 0.07 88 1015.2
20260901022404 85 157 0.0 2.0 0.00 0.07 0.07 87 1015.1
20260901021859 85 162 0.0 2.0 0.00 0.07 0.07 87 1015.1
20260901021355 85 171 1.0 3.0 0.00 0.07 0.07 87 1015.1
20260901020850 84 167 0.0 3.0 0.00 0.07 0.07 87 1014.9
20260901020345 84 124 0.0 1.0 0.00 0.07 0.07 87 1015.0
20260901015844 84 217 0.0 2.0 0.00 0.07 0.07 87 1014.8
20260901015341 84 168 0.0 1.0 0.00 0.07 0.07 86 1014.7
20260901014840 85 194 0.0 1.0 0.00 0.07 0.07 83 1014.6
20260901014336 85 194 0.0 1.0 0.00 0.07 0.07 83 1014.8
20260901013831 85 194 0.0 1.0 0.00 0.07 0.07 83 1014.6
20260901013327 85 194 0.0 1.0 0.00 0.07 0.07 83 1014.6
20260901012822 85 194 0.0 1.0 0.00 0.07 0.07 83 1014.6
20260901012317 85 194 0.0 1.0 0.00 0.07 0.07 83 1014.4
20260901011813 85 194 0.0 1.0 0.00 0.07 0.07 83 1014.5
20260901011308 85 129 0.0 0.0 0.00 0.07 0.07 83 1014.6
20260901010801 86 255 0.0 0.0 0.00 0.07 0.07 82 1014.6
20260901010256 86 255 0.0 0.0 0.00 0.07 0.07 81 1014.7
20260901005755 86 243 1.0 2.0 0.00 0.07 0.07 80 1014.5
20260901005251 86 180 0.0 0.0 0.00 0.07 0.07 80 1014.7
20260901004750 87 224 0.0 0.0 0.00 0.07 0.07 80 1014.6
20260901004246 87 230 0.0 2.0 0.00 0.07 0.07 80 1014.7
20260901003745 87 129 0.0 1.0 0.00 0.07 0.07 80 1014.5
20260901003239 87 217 0.0 1.0 0.00 0.07 0.07 79 1014.9
20260901002732 87 224 1.0 2.0 0.00 0.07 0.07 79 1014.8
20260901002228 87 246 1.0 2.0 0.00 0.07 0.07 79 1014.7
20260901001723 88 255 0.0 1.0 0.00 0.07 0.07 79 1014.7
20260901001218 88 343 0.0 2.0 0.00 0.07 0.07 77 1014.7
20260901000714 88 246 2.0 2.0 0.00 0.07 0.07 77 1014.7
20260901000211 88 242 0.0 1.0 0.00 0.07 0.07 76 1014.8
20260831235702 88 141 0.0 5.0 0.00 0.07 0.07 76 1014.6
20260831235158 88 283 0.0 2.0 0.00 0.07 0.07 76 1014.7
20260831234657 89 144 0.0 3.0 0.00 0.07 0.07 75 1014.7
20260831234152 89 243 1.0 2.0 0.00 0.07 0.07 75 1014.8
20260831233648 89 242 0.0 5.0 0.00 0.07 0.07 75 1014.9
20260831233143 89 232 0.0 2.0 0.00 0.07 0.07 75 1014.8
20260831232638 89 229 1.0 3.0 0.00 0.07 0.07 76 1014.9
20260831232134 89 269 0.0 3.0 0.00 0.07 0.07 75 1014.9
20260831231630 89 158 2.0 2.0 0.00 0.07 0.07 76 1014.6
20260831231126 89 255 0.0 2.0 0.00 0.07 0.07 76 1014.9
20260831230621 89 116 0.0 3.0 0.00 0.07 0.07 78 1014.8
20260831230121 89 158 2.0 4.0 0.00 0.07 0.07 77 1015.0
20260831225616 89 144 2.0 5.0 0.00 0.07 0.07 76 1014.8
20260831225111 90 160 2.0 4.0 0.00 0.07 0.07 75 1015.0
20260831224606 91 165 2.0 4.0 0.00 0.07 0.07 75 1014.8
20260831224101 90 166 0.0 3.0 0.00 0.07 0.07 76 1015.1
20260831223557 91 112 3.0 5.0 0.00 0.07 0.07 74 1015.0
20260831223053 90 181 1.0 5.0 0.00 0.07 0.07 77 1015.1
20260831222549 91 244 1.0 2.0 0.00 0.07 0.07 76 1015.0
20260831222048 89 130 1.0 3.0 0.00 0.07 0.07 80 1015.1
20260831221544 89 224 0.0 2.0 0.00 0.07 0.07 80 1015.0
20260831221039 88 247 2.0 4.0 0.00 0.07 0.07 81 1015.0
20260831220534 87 162 2.0 3.0 0.00 0.07 0.07 83 1015.1
20260831220030 87 124 1.0 3.0 0.00 0.07 0.07 84 1015.1
20260831215525 87 124 0.0 4.0 0.00 0.07 0.07 85 1015.5
20260831215021 87 169 0.0 2.0 0.00 0.07 0.07 85 1015.1
20260831214518 86 246 0.0 1.0 0.00 0.07 0.07 85 1015.1
20260831214014 86 224 0.0 3.0 0.00 0.07 0.07 84 1015.4
20260831213510 86 75 0.0 3.0 0.00 0.07 0.07 84 1015.3
20260831213010 86 243 2.0 3.0 0.00 0.07 0.07 82 1015.7
20260831212507 86 222 1.0 2.0 0.00 0.07 0.07 82 1015.7
20260831212001 85 315 0.0 2.0 0.00 0.07 0.07 84 1015.9
20260831211456 85 243 0.0 1.0 0.00 0.07 0.07 84 1015.6
20260831210955 85 304 0.0 2.0 0.00 0.07 0.07 86 1015.9
20260831210450 84 225 2.0 2.0 0.00 0.07 0.07 87 1016.0
20260831205946 84 292 0.0 2.0 0.00 0.07 0.07 87 1015.9
20260831205441 83 231 1.0 4.0 0.00 0.07 0.07 89 1016.0
20260831204937 83 269 0.0 5.0 0.00 0.07 0.07 91 1016.0
20260831204437 83 338 0.0 3.0 0.00 0.07 0.07 90 1016.1
20260831203936 83 251 3.0 4.0 0.00 0.07 0.07 89 1016.2
20260831203430 84 229 0.0 2.0 0.05 0.07 0.07 89 1016.3
20260831202928 83 227 1.0 2.0 0.05 0.07 0.07 89 1016.4
20260831202424 84 252 1.0 5.0 0.02 0.07 0.07 88 1016.5
20260831201918 86 255 3.0 7.0 0.00 0.06 0.06 87 1016.3
20260831201416 90 157 3.0 7.0 0.00 0.06 0.06 79 1016.0